KAVLKFFC

Guest
Details From KAVL - Asheville Rgnl
To KFFC - Atlanta Peachtree City Falcon Fld
Flight Number -
Tags generated
Created
Modified
Stats Distance 160 nm / 297 km
Max Altitude 20,600 ft / 6,279 m
Waypoints 3
Social Downloads 0
Likes 0
Share VATSIM

Download

Looking for another format? Having issues loading an existing format? Contact us
Advertisement - Login to hide

Notes

Basic altitude profile: - Ascent Rate: 2500ft/min - Ascent Speed: 250kts - Cruise Altitude: 35000ft - Cruise Speed: 420kts - Descent Rate: 1500ft/min - Descent Speed: 250kts Options: - Use NATs: yes - Use PACOTS: yes - Use low airways: yes - Use high airways: yes

Route

KAVL ODF KFFC

ID Type Via Altitude Latitude Longitude Leg Dist Tot Dist Heading (true) Name
O KAVL APT - 0 ft / 0 m 35.43618˚ -82.54181˚ - 0 nm - Asheville Rgnl
ODF VOR - 20,600 ft / 6,279 m 34.69586˚ -83.29767˚ 57 nm 57 nm 220° / 220° FOOTHILLS VORTAC
O KFFC APT - 0 ft / 0 m 33.35725˚ -84.57183˚ 102 nm 160 nm 219° / 218° Atlanta Peachtree City Falcon Fld

Altitude Profile

Advertisement - Login to hide

KAVL

Details ICAO KAVL (AVL)
Name Asheville Rgnl
Region United States
Timezone America/New_York (UTC-4.0)
Stats Elevation 2,165 ft / 660 m (AMSL)
Location 35.436182° -82.541812°
Runways 1
Magnetic Variation 6.684° W

METAR

KAVL 271754Z 15008KT 10SM FEW027 26/19 A3004 RMK AO2 SLP145 T02610189 10261 20183 58009 $

Decode

TAF

KAVL 271748Z 2718/2818 17009KT P6SM SCT025 BKN250 TEMPO 2718/2722 5SM -SHRA BKN025 FM280200 14003KT P6SM VCSH OVC023 PROB30 2803/2809 4SM -SHRA OVC015 FM280900 VRB02KT 5SM SHRA BR OVC014 FM281400 06005KT 4SM SHRA OVC012

Decode

Departure Runways

ID Width Length Bearing (true) Bearing (mag) Surface Threshold Offset Overrun Length
16 151 ft / 46 m 8,015 ft / 2,443 m 159.91° 166.59° Asphalt 0 ft / 0 m 200 ft / 61 m
34 151 ft / 46 m 8,015 ft / 2,443 m 339.91° 346.59° Asphalt 0 ft / 0 m 200 ft / 61 m

KFFC

Details ICAO KFFC (FFC)
Name Atlanta Peachtree City Falcon Fld
Region United States
Timezone America/New_York (UTC-4.0)
Stats Elevation 808 ft / 246 m (AMSL)
Location 33.357246° -84.571831°
Runways 1
Magnetic Variation 4.995° W

METAR

KFFC 271753Z AUTO 05006KT 10SM SCT026 28/21 A2995 RMK AO2 SLP134 T02780211 10289 20211 58012

Decode

TAF

Not found

Destination Runways

ID Width Length Bearing (true) Bearing (mag) Surface Threshold Offset Overrun Length
13 100 ft / 30 m 5,223 ft / 1,592 m 128.27° 133.27° Asphalt 0 ft / 0 m 0 ft / 0 m
31 100 ft / 30 m 5,223 ft / 1,592 m 308.27° 313.27° Asphalt 0 ft / 0 m 0 ft / 0 m

Approach Navaids

Runway Type Ident Frequency Range Bearing (true) Bearing (mag) Slope Elevation
31 Localiser FFC 111.95 MHz 18 nm / 33 km 308.29° 313.28° - 808 ft / 246 m (AMSL)
31 DME FFC 111.95 MHz 18 nm / 33 km - - - 808 ft / 246 m (AMSL)